timestamp,wind_dir_avg,wind_spd_avg,wind_spd_max_dir,wind_spd_gust,battery_voltage,lat,long
2020-11-13 00:04:01+00:00,294.0,6.24,295.0,6.97,12.65,47.59359,-54.27349
2020-11-13 00:14:01+00:00,286.0,6.96,289.0,7.67,12.65,47.59359,-54.27349
2020-11-13 00:24:01+00:00,287.0,7.57,286.0,8.2,12.65,47.59359,-54.27349
2020-11-13 00:34:01+00:00,296.0,6.02,297.0,6.72,12.65,47.59359,-54.27349
2020-11-13 00:44:01+00:00,293.0,5.66,289.0,7.14,12.65,47.59359,-54.27349
2020-11-13 00:54:01+00:00,281.0,2.83,291.0,3.69,12.65,47.59359,-54.27349
2020-11-13 01:04:01+00:00,265.0,2.62,270.0,3.16,12.65,47.59359,-54.27349
2020-11-13 01:14:01+00:00,270.0,3.96,272.0,4.43,12.65,47.59359,-54.27349
2020-11-13 01:24:01+00:00,256.0,2.9,256.0,3.34,12.65,47.59359,-54.27349
2020-11-13 01:34:01+00:00,262.0,2.25,270.0,2.8,12.65,47.59359,-54.27349
2020-11-13 01:44:01+00:00,241.0,1.72,238.0,2.5,12.65,47.59359,-54.27349
2020-11-13 01:54:01+00:00,315.0,3.29,312.0,3.67,12.65,47.59359,-54.27349
2020-11-13 02:04:01+00:00,300.0,4.12,299.0,4.99,12.65,47.59359,-54.27349
2020-11-13 02:14:01+00:00,292.0,5.35,298.0,6.1,12.57,47.59359,-54.27349
2020-11-13 02:24:01+00:00,295.0,4.48,295.0,5.84,12.57,47.59359,-54.27349
2020-11-13 02:34:01+00:00,295.0,6.91,297.0,7.52,12.57,47.59359,-54.27349
2020-11-13 02:44:01+00:00,306.0,6.48,307.0,6.84,12.57,47.59359,-54.27349
2020-11-13 02:54:01+00:00,312.0,5.48,311.0,6.3,12.57,47.59359,-54.27349
2020-11-13 03:04:01+00:00,323.0,5.78,322.0,6.95,12.57,47.59359,-54.27349
2020-11-13 03:14:01+00:00,325.0,5.52,324.0,6.05,12.57,47.59359,-54.27349
2020-11-13 03:24:01+00:00,343.0,4.65,345.0,5.14,12.57,47.59359,-54.27349
2020-11-13 03:34:01+00:00,349.0,4.88,348.0,5.5,12.57,47.59359,-54.27349
2020-11-13 03:44:01+00:00,8.0,4.47,13.0,5.27,12.57,47.59359,-54.27349
2020-11-13 03:54:01+00:00,342.0,4.24,341.0,4.47,12.57,47.59359,-54.27349
2020-11-13 04:04:01+00:00,3.0,4.46,4.0,6.14,12.57,47.59359,-54.27349
2020-11-13 04:14:01+00:00,356.0,3.89,357.0,4.39,12.57,47.59359,-54.27349
2020-11-13 04:24:01+00:00,355.0,3.91,356.0,4.52,12.57,47.59359,-54.27349
2020-11-13 04:34:01+00:00,349.0,3.24,348.0,3.87,12.57,47.59359,-54.27349
2020-11-13 04:44:01+00:00,348.0,3.98,348.0,4.29,12.57,47.59359,-54.27349
2020-11-13 04:54:01+00:00,354.0,3.25,352.0,3.69,12.57,47.59359,-54.27349
2020-11-13 05:04:01+00:00,329.0,4.19,324.0,4.91,12.57,47.59359,-54.27349
2020-11-13 05:14:01+00:00,354.0,3.36,355.0,3.68,12.57,47.59359,-54.27349
2020-11-13 05:24:01+00:00,319.0,3.53,322.0,3.86,12.57,47.59359,-54.27349
2020-11-13 05:34:01+00:00,325.0,3.17,323.0,3.62,12.57,47.59359,-54.27349
2020-11-13 05:44:01+00:00,320.0,4.16,321.0,4.55,12.57,47.59359,-54.27349
2020-11-13 05:54:01+00:00,351.0,3.34,355.0,3.98,12.57,47.59359,-54.27349
2020-11-13 06:04:01+00:00,330.0,5.42,324.0,6.35,12.57,47.59359,-54.27349
2020-11-13 06:14:01+00:00,339.0,5.44,340.0,5.87,12.49,47.59359,-54.27349
2020-11-13 06:24:01+00:00,346.0,5.0,345.0,5.54,12.49,47.59359,-54.27349
2020-11-13 06:34:01+00:00,333.0,4.18,339.0,4.77,12.49,47.59359,-54.27349
2020-11-13 06:44:01+00:00,328.0,4.21,327.0,4.68,12.49,47.59359,-54.27349
2020-11-13 06:54:01+00:00,333.0,3.17,326.0,3.93,12.49,47.59359,-54.27349
2020-11-13 07:04:01+00:00,332.0,3.41,329.0,3.79,12.49,47.59359,-54.27349
2020-11-13 07:14:01+00:00,350.0,1.43,352.0,1.71,12.57,47.59359,-54.27349
2020-11-13 07:24:01+00:00,322.0,5.12,324.0,5.83,12.57,47.59359,-54.27349
2020-11-13 07:34:01+00:00,329.0,5.52,331.0,6.24,12.57,47.59359,-54.27349
2020-11-13 07:44:01+00:00,328.0,4.86,326.0,5.35,12.57,47.59359,-54.27349
2020-11-13 07:54:01+00:00,316.0,1.79,308.0,2.19,12.57,47.59359,-54.27349
2020-11-13 08:04:01+00:00,324.0,2.0,316.0,2.51,12.57,47.59359,-54.27349
2020-11-13 08:14:01+00:00,331.0,4.21,338.0,4.9,12.49,47.59359,-54.27349
2020-11-13 08:24:01+00:00,328.0,5.03,327.0,5.78,12.49,47.59359,-54.27349
2020-11-13 08:34:01+00:00,319.0,5.6,320.0,6.2,12.49,47.59359,-54.27349
2020-11-13 08:44:01+00:00,320.0,6.12,323.0,7.08,12.49,47.59359,-54.27349
2020-11-13 08:54:01+00:00,317.0,5.27,317.0,6.37,12.49,47.59359,-54.27349
2020-11-13 09:04:01+00:00,307.0,5.99,308.0,7.17,12.49,47.59359,-54.27349
2020-11-13 09:14:01+00:00,307.0,5.29,312.0,6.14,12.49,47.59359,-54.27349
2020-11-13 09:24:01+00:00,322.0,7.19,319.0,8.15,12.49,47.59359,-54.27349
2020-11-13 09:34:01+00:00,319.0,7.71,318.0,9.05,12.49,47.59359,-54.27349
2020-11-13 09:44:01+00:00,316.0,6.75,319.0,7.87,12.49,47.59359,-54.27349
2020-11-13 09:54:01+00:00,325.0,6.87,326.0,7.56,12.49,47.59359,-54.27349
2020-11-13 10:04:01+00:00,334.0,5.09,338.0,6.13,12.49,47.59359,-54.27349
2020-11-13 10:14:01+00:00,335.0,3.02,331.0,3.46,12.49,47.59359,-54.27349
2020-11-13 10:24:01+00:00,316.0,4.21,324.0,4.95,12.49,47.59359,-54.27349
2020-11-13 10:34:01+00:00,326.0,5.23,322.0,5.91,12.49,47.59359,-54.27349
2020-11-13 10:44:01+00:00,322.0,5.77,322.0,6.52,12.49,47.59359,-54.27349
2020-11-13 10:54:01+00:00,322.0,5.18,323.0,6.11,12.49,47.59359,-54.27349
2020-11-13 11:04:01+00:00,318.0,5.26,312.0,6.34,12.49,47.59359,-54.27349
2020-11-13 11:14:01+00:00,333.0,4.7,329.0,5.55,12.49,47.59359,-54.27349
2020-11-13 11:24:01+00:00,320.0,5.25,331.0,6.56,12.49,47.59359,-54.27349
2020-11-13 11:34:01+00:00,326.0,6.32,326.0,7.43,12.49,47.59359,-54.27349
2020-11-13 11:44:01+00:00,319.0,5.95,316.0,7.83,12.49,47.59359,-54.27349
2020-11-13 11:54:01+00:00,329.0,5.71,332.0,6.37,12.49,47.59359,-54.27349
2020-11-13 12:04:01+00:00,319.0,5.2,323.0,6.14,12.49,47.59359,-54.27349
2020-11-13 12:14:01+00:00,327.0,5.01,333.0,6.86,12.57,47.59359,-54.27349
2020-11-13 12:24:01+00:00,339.0,6.56,343.0,8.67,12.57,47.59359,-54.27349
2020-11-13 12:34:01+00:00,325.0,7.5,322.0,8.44,12.57,47.59359,-54.27349
2020-11-13 12:44:01+00:00,321.0,7.76,319.0,8.54,12.57,47.59359,-54.27349
2020-11-13 12:54:01+00:00,326.0,7.21,330.0,8.38,12.57,47.59359,-54.27349
2020-11-13 13:04:01+00:00,326.0,7.64,332.0,8.96,12.57,47.59359,-54.27349
2020-11-13 13:14:01+00:00,325.0,9.79,327.0,11.19,13.53,47.59359,-54.27349
2020-11-13 13:24:01+00:00,335.0,9.59,341.0,10.81,13.53,47.59359,-54.27349
2020-11-13 13:34:01+00:00,344.0,8.2,343.0,9.18,13.53,47.59359,-54.27349
2020-11-13 13:44:01+00:00,334.0,9.08,341.0,10.35,13.53,47.59359,-54.27349
2020-11-13 13:54:01+00:00,340.0,8.92,344.0,10.15,13.53,47.59359,-54.27349
2020-11-13 14:04:01+00:00,332.0,6.85,325.0,7.71,13.53,47.59359,-54.27349
2020-11-13 14:14:01+00:00,347.0,6.28,353.0,7.03,13.76,47.59359,-54.27349
2020-11-13 14:24:01+00:00,333.0,8.93,336.0,10.05,13.76,47.59359,-54.27349
2020-11-13 14:34:01+00:00,354.0,7.8,357.0,9.02,13.76,47.59359,-54.27349
2020-11-13 14:44:01+00:00,347.0,8.8,346.0,9.39,13.76,47.59359,-54.27349
2020-11-13 14:54:01+00:00,355.0,8.01,353.0,9.11,13.76,47.59359,-54.27349
2020-11-13 15:04:01+00:00,344.0,7.38,336.0,8.98,13.76,47.59359,-54.27349
2020-11-13 15:14:01+00:00,327.0,6.94,331.0,8.7,13.68,47.59359,-54.27349
2020-11-13 15:24:01+00:00,334.0,7.58,334.0,8.13,13.68,47.59359,-54.27349
2020-11-13 15:34:01+00:00,346.0,8.41,335.0,9.67,13.68,47.59359,-54.27349
2020-11-13 15:44:01+00:00,347.0,7.65,348.0,8.64,13.68,47.59359,-54.27349
2020-11-13 15:54:01+00:00,344.0,7.78,343.0,8.67,13.68,47.59359,-54.27349
2020-11-13 16:04:01+00:00,344.0,6.91,345.0,8.4,13.68,47.59359,-54.27349
2020-11-13 16:14:01+00:00,347.0,6.74,348.0,7.45,13.6,47.59359,-54.27349
2020-11-13 16:24:01+00:00,331.0,7.51,357.0,9.39,13.6,47.59359,-54.27349
2020-11-13 16:34:01+00:00,336.0,7.36,330.0,8.03,13.6,47.59359,-54.27349
2020-11-13 16:44:01+00:00,349.0,6.68,352.0,7.45,13.6,47.59359,-54.27349
2020-11-13 16:54:01+00:00,338.0,6.82,340.0,8.0,13.6,47.59359,-54.27349
2020-11-13 17:04:01+00:00,345.0,7.46,344.0,8.54,13.6,47.59359,-54.27349
2020-11-13 17:14:01+00:00,348.0,6.45,340.0,7.86,14.32,47.59359,-54.27349
2020-11-13 17:24:01+00:00,349.0,6.6,349.0,7.42,14.32,47.59359,-54.27349
2020-11-13 17:34:01+00:00,344.0,6.83,349.0,7.81,14.32,47.59359,-54.27349
2020-11-13 17:44:01+00:00,342.0,5.05,345.0,5.61,14.32,47.59359,-54.27349
2020-11-13 17:54:01+00:00,328.0,4.85,321.0,5.68,14.32,47.59359,-54.27349
2020-11-13 18:04:01+00:00,319.0,5.52,316.0,6.3,14.32,47.59359,-54.27349
2020-11-13 18:14:01+00:00,305.0,3.77,309.0,4.32,13.92,47.59359,-54.27349
2020-11-13 18:24:01+00:00,308.0,3.27,315.0,3.56,13.92,47.59359,-54.27349
2020-11-13 18:34:01+00:00,289.0,3.97,287.0,4.46,13.92,47.59359,-54.27349
2020-11-13 18:44:01+00:00,285.0,3.55,285.0,3.96,13.92,47.59359,-54.27349
2020-11-13 18:54:01+00:00,279.0,3.29,273.0,3.64,13.92,47.59359,-54.27349
2020-11-13 19:04:01+00:00,277.0,3.31,277.0,3.58,13.92,47.59359,-54.27349
2020-11-13 19:14:01+00:00,255.0,3.71,255.0,4.4,13.68,47.59359,-54.27349
2020-11-13 19:24:01+00:00,253.0,4.8,254.0,5.2,13.68,47.59359,-54.27349
2020-11-13 19:34:01+00:00,256.0,5.49,257.0,6.16,13.68,47.59359,-54.27349
2020-11-13 19:44:01+00:00,255.0,5.87,256.0,6.41,13.68,47.59359,-54.27349
2020-11-13 19:54:01+00:00,259.0,5.03,259.0,5.7,13.68,47.59359,-54.27349
2020-11-13 20:04:01+00:00,259.0,5.15,260.0,5.52,13.68,47.59359,-54.27349
2020-11-13 20:14:01+00:00,263.0,4.75,264.0,5.15,12.97,47.59359,-54.27349
2020-11-13 20:24:01+00:00,268.0,4.49,272.0,4.81,12.97,47.59359,-54.27349
2020-11-13 20:34:01+00:00,272.0,4.44,276.0,4.78,12.97,47.59359,-54.27349
2020-11-13 20:44:01+00:00,269.0,4.14,268.0,4.49,12.97,47.59359,-54.27349
2020-11-13 20:54:01+00:00,288.0,4.2,288.0,4.51,12.97,47.59359,-54.27349
2020-11-13 21:04:01+00:00,293.0,3.4,288.0,3.66,12.97,47.59359,-54.27349
2020-11-13 21:14:01+00:00,293.0,3.33,295.0,3.52,12.73,47.59359,-54.27349
2020-11-13 21:24:01+00:00,278.0,2.97,277.0,3.2,12.73,47.59359,-54.27349
2020-11-13 21:34:01+00:00,288.0,3.06,289.0,3.36,12.73,47.59359,-54.27349
2020-11-13 21:44:01+00:00,308.0,2.98,310.0,3.37,12.73,47.59359,-54.27349
2020-11-13 21:54:01+00:00,331.0,2.94,330.0,3.2,12.73,47.59359,-54.27349
2020-11-13 22:04:01+00:00,352.0,3.38,352.0,3.79,12.73,47.59359,-54.27349
2020-11-13 22:14:01+00:00,339.0,2.74,344.0,3.05,12.65,47.59359,-54.27349
2020-11-13 22:24:01+00:00,356.0,3.71,0.0,4.31,12.65,47.59359,-54.27349
2020-11-13 22:34:01+00:00,345.0,3.8,347.0,4.22,12.65,47.59359,-54.27349
2020-11-13 22:44:01+00:00,334.0,2.99,335.0,3.36,12.65,47.59359,-54.27349
2020-11-13 22:54:01+00:00,321.0,3.61,326.0,3.84,12.65,47.59359,-54.27349
2020-11-13 23:04:01+00:00,323.0,3.46,325.0,3.77,12.65,47.59359,-54.27349
2020-11-13 23:14:01+00:00,329.0,3.98,329.0,4.37,12.65,47.59359,-54.27349
2020-11-13 23:24:01+00:00,322.0,3.32,313.0,3.75,12.65,47.59359,-54.27349
2020-11-13 23:34:01+00:00,333.0,4.28,332.0,4.71,12.65,47.59359,-54.27349
2020-11-13 23:44:01+00:00,355.0,3.83,355.0,4.47,12.65,47.59359,-54.27349
2020-11-13 23:54:01+00:00,335.0,4.35,342.0,4.96,12.65,47.59359,-54.27349
